Weather History for KPAH - October, 2013

Change the Weather History Date:

Wednesday, October 2, 2013

  Actual Average Record
Temperature  
Mean Temperature 76 °F 63 °F  
Max Temperature 82 °F 76 °F 93 °F (1953)
Min Temperature 69 °F 51 °F 34 °F (1958)
Degree Days  
Heating Degree Days 0 4  
Month to date heating degree days 0 8  
Since 1 July heating degree days 5 47  
Cooling Degree Days 11 2  
Month to date cooling degree days 15 5  
Year to date cooling degree days 1423 1505  
Growing Degree Days 23 (Base 50)    
Moisture  
Dew Point 68 °F    
Average Humidity 83    
Maximum Humidity 97    
Minimum Humidity 69    
Precipitation  
Precipitation 0.08 in 0.14 in 1.55 in (1945)
Month to date precipitation 0.13 0.27  
Year to date precipitation 44.00 36.50  
Snow  
Snow 0.00 in 0.00 in 0.00 in (2002)
Month to date snowfall 0.0 0.0  
Since 1 July snowfall 0.0 0.0  
Since 1 September snowfall 0.0 0.0  
Snow Depth 0.00 in    
Sea Level Pressure  
Sea Level Pressure 30.05 in    
Wind  
Wind Speed 5 mph (SSW)    
Max Wind Speed 20 mph    
Max Gust Speed 24 mph    
Visibility 8 miles    
Events Rain , Thunderstorm    
T = Trace of Precipitation, MM = Missing Value Source: NWS Daily Summary

Daily Weather History Graph

Daily Weather History Graph

Search for Another Location

Airport or City:

Trip Planner

Search our weather history database for the weather conditions in past years. The results will help you decide how hot, cold, wet, or windy it might be!

Date:

Astronomy

Oct. 02, 2013 Rise Set
Actual Time 6:51 AM CDT 6:36 PM CDT
Civil Twilight 6:25 AM CDT 7:02 PM CDT
Nautical Twilight 5:55 AM CDT 7:32 PM CDT
Astronomical Twilight 5:25 AM CDT 8:02 PM CDT
Moon 4:27 AM CDT (10/2) 5:10 PM CDT (10/2)
Length of Visible Light 12h 36m
Length of Day
11h 44m
Waning Crescent, 6% of the Moon is Illuminated
Oct 2
Waning Crescent
Oct 4
New
Oct 11
First Quarter
Oct 18
Full
Oct 26
Last Quarter

Hourly Weather History & Observations

Time (CDT) Temp. Heat Index Dew Point Humidity Pressure Visibility Wind Dir Wind Speed Gust Speed Precip Events Conditions
12:19 AM 64.4 °F - 64.4 °F 100% 30.05 in 1.2 mi Calm Calm - N/A   Scattered Clouds
12:24 AM 64.4 °F - 64.4 °F 100% 30.05 in 0.8 mi Calm Calm - N/A   Mist
12:47 AM 66.2 °F - 64.4 °F 94% 30.04 in 1.2 mi South 3.5 mph - N/A   Partly Cloudy
12:53 AM 68.0 °F - 66.0 °F 93% 30.04 in 4.0 mi Calm Calm - N/A   Partly Cloudy
1:53 AM 70.0 °F - 68.0 °F 93% 30.04 in 6.0 mi Calm Calm - N/A   Mostly Cloudy
2:53 AM 71.1 °F - 68.0 °F 90% 30.04 in 8.0 mi SSW 3.5 mph - N/A   Mostly Cloudy
3:53 AM 72.0 °F - 68.0 °F 87% 30.04 in 8.0 mi SW 3.5 mph - N/A   Partly Cloudy
4:53 AM 72.0 °F - 68.0 °F 87% 30.04 in 7.0 mi SSW 4.6 mph - N/A   Overcast
5:30 AM 73.4 °F - 68.0 °F 83% 30.05 in 2.5 mi South 5.8 mph - 0.07 in Rain Light Rain
5:37 AM 73.4 °F - 68.0 °F 83% 30.06 in 10.0 mi SSW 4.6 mph - 0.07 in Rain Light Rain
5:53 AM 72.0 °F - 68.0 °F 87% 30.05 in 9.0 mi SW 3.5 mph - 0.07 in   Overcast
6:53 AM 71.1 °F - 68.0 °F 90% 30.06 in 7.0 mi SW 3.5 mph - 0.01 in   Overcast
7:53 AM 72.0 °F - 69.1 °F 91% 30.08 in 6.0 mi SSW 3.5 mph - N/A   Mostly Cloudy
8:53 AM 75.0 °F - 70.0 °F 84% 30.08 in 9.0 mi WSW 3.5 mph - N/A   Mostly Cloudy
9:53 AM 75.9 °F - 69.1 °F 79% 30.08 in 10.0 mi SSW 3.5 mph - N/A   Scattered Clouds
10:53 AM 78.1 °F - 70.0 °F 76% 30.08 in 10.0 mi SSW 8.1 mph - N/A   Partly Cloudy
11:53 AM 80.1 °F 83.6 °F 71.1 °F 74% 30.07 in 10.0 mi SSW 3.5 mph - N/A   Partly Cloudy
12:19 PM 80.6 °F 84.6 °F 71.6 °F 74% 30.08 in 10.0 mi WSW 9.2 mph - N/A   Mostly Cloudy
12:33 PM 80.6 °F 83.9 °F 69.8 °F 70% 30.07 in 10.0 mi WSW 8.1 mph - N/A   Mostly Cloudy
12:53 PM 81.0 °F 84.4 °F 70.0 °F 69% 30.06 in 10.0 mi WSW 8.1 mph - N/A   Partly Cloudy
1:53 PM 81.0 °F 84.4 °F 70.0 °F 69% 30.04 in 10.0 mi WSW 13.8 mph - N/A   Mostly Cloudy
2:53 PM 81.0 °F 84.1 °F 69.1 °F 67% 30.02 in 10.0 mi SW 6.9 mph - N/A   Partly Cloudy
3:53 PM 80.1 °F 82.9 °F 69.1 °F 69% 30.02 in 10.0 mi SSW 8.1 mph - N/A   Clear
4:53 PM 75.0 °F - 66.0 °F 73% 30.03 in 10.0 mi WNW 8.1 mph 18.4 mph N/A Thunderstorm Thunderstorm
5:13 PM 73.4 °F - 66.2 °F 78% 30.03 in 10.0 mi West 5.8 mph - N/A   Scattered Clouds
5:29 PM 73.4 °F - 66.2 °F 78% 30.03 in 10.0 mi WSW 4.6 mph - N/A Thunderstorm Thunderstorm
5:53 PM 73.0 °F - 66.9 °F 81% 30.03 in 10.0 mi Calm Calm - N/A   Clear
6:53 PM 71.1 °F - 68.0 °F 90% 30.03 in 9.0 mi Calm Calm - 0.00 in Rain Light Rain
7:53 PM 71.1 °F - 68.0 °F 90% 30.03 in 7.0 mi SSE 4.6 mph - 0.00 in Rain Light Rain
8:53 PM 71.1 °F - 68.0 °F 90% 30.04 in 7.0 mi Calm Calm - 0.00 in   Partly Cloudy
9:53 PM 70.0 °F - 68.0 °F 93% 30.04 in 7.0 mi SSE 3.5 mph - N/A   Clear
10:53 PM 70.0 °F - 66.0 °F 87% 30.04 in 10.0 mi SSE 5.8 mph - N/A   Scattered Clouds
11:53 PM 70.0 °F - 66.0 °F 87% 30.03 in 10.0 mi SSE 4.6 mph - 0.00 in   Partly Cloudy